Time,TemperatureF,DewpointF,PressureIn,WindDirection,WindDirectionDegrees,WindSpeedMPH,WindSpeedGustMPH,Humidity,HourlyPrecipIn,Conditions,Clouds,dailyrainin,SoftwareType,DateUTC
2013-03-12 00:03:00,26.8,22.9,29.64,NNE,23,1.6,4.0,85,0.00,,,0.00,WUHU216HW,2013-03-11 23:03:00,
2013-03-12 00:08:00,26.8,22.9,29.64,NNE,23,2.5,3.6,85,0.00,,,0.00,WUHU216HW,2013-03-11 23:08:00,
2013-03-12 00:13:00,26.8,22.9,29.64,NNE,23,1.8,2.5,85,0.00,,,0.00,WUHU216HW,2013-03-11 23:13:00,
2013-03-12 00:18:00,26.8,22.9,29.64,NNE,23,1.1,2.5,85,0.00,,,0.00,WUHU216HW,2013-03-11 23:18:00,
2013-03-12 00:23:00,26.8,22.9,29.64,NNE,23,1.8,2.2,85,0.00,,,0.00,WUHU216HW,2013-03-11 23:23:00,
2013-03-12 00:28:00,26.8,22.9,29.64,NNE,23,0.4,2.2,85,0.00,,,0.00,WUHU216HW,2013-03-11 23:28:00,
2013-03-12 00:33:00,26.8,23.1,29.64,NNE,23,1.1,2.2,86,0.00,,,0.00,WUHU216HW,2013-03-11 23:33:00,
2013-03-12 00:38:00,26.6,22.7,29.64,NNE,23,1.1,1.8,85,0.00,,,0.00,WUHU216HW,2013-03-11 23:38:00,
2013-03-12 00:43:00,26.6,23.0,29.64,NNE,23,3.4,3.4,86,0.00,,,0.00,WUHU216HW,2013-03-11 23:43:00,
2013-03-12 00:48:00,26.6,23.0,29.65,NNE,23,1.6,3.4,86,0.00,,,0.00,WUHU216HW,2013-03-11 23:48:00,
2013-03-12 00:53:00,26.6,23.0,29.64,NNE,23,1.6,3.4,86,0.00,,,0.00,WUHU216HW,2013-03-11 23:53:00,
2013-03-12 00:58:00,26.6,23.0,29.64,NNE,23,1.6,1.6,86,0.00,,,0.00,WUHU216HW,2013-03-11 23:58:00,
2013-03-12 01:03:00,26.6,23.0,29.64,NNE,23,0.4,1.6,86,0.00,,,0.00,WUHU216HW,2013-03-12 00:03:00,
2013-03-12 01:08:00,26.6,23.0,29.64,NNE,23,1.3,1.6,86,0.00,,,0.00,WUHU216HW,2013-03-12 00:08:00,
2013-03-12 01:13:00,26.8,23.1,29.64,NNE,23,2.5,3.6,86,0.00,,,0.00,WUHU216HW,2013-03-12 00:13:00,
2013-03-12 01:18:00,26.8,23.1,29.64,NNE,23,4.5,4.5,86,0.00,,,0.00,WUHU216HW,2013-03-12 00:18:00,
2013-03-12 01:23:00,27.0,23.3,29.63,NNE,23,1.8,4.5,86,0.00,,,0.00,WUHU216HW,2013-03-12 00:23:00,
2013-03-12 01:28:00,27.0,23.0,29.63,NNE,23,1.8,4.5,85,0.00,,,0.00,WUHU216HW,2013-03-12 00:28:00,
2013-03-12 01:33:00,27.0,23.0,29.63,NNE,23,4.7,4.7,85,0.00,,,0.00,WUHU216HW,2013-03-12 00:33:00,
2013-03-12 01:38:00,26.8,22.9,29.63,NNE,23,1.1,4.7,85,0.00,,,0.00,WUHU216HW,2013-03-12 00:38:00,
2013-03-12 01:43:00,26.6,22.7,29.63,NNE,23,1.1,4.7,85,0.00,,,0.00,WUHU216HW,2013-03-12 00:43:00,
2013-03-12 01:48:00,26.8,23.1,29.63,NNE,23,1.1,2.5,86,0.00,,,0.00,WUHU216HW,2013-03-12 00:48:00,
2013-03-12 01:53:00,26.8,22.9,29.63,NNE,23,1.1,2.7,85,0.00,,,0.00,WUHU216HW,2013-03-12 00:53:00,
2013-03-12 01:58:00,26.6,22.7,29.63,NNE,23,2.5,2.7,85,0.00,,,0.00,WUHU216HW,2013-03-12 00:58:00,
2013-03-12 02:03:00,26.6,22.7,29.63,NNE,23,2.2,2.5,85,0.00,,,0.00,WUHU216HW,2013-03-12 01:03:00,
2013-03-12 02:08:00,26.6,22.7,29.63,NNE,23,3.8,3.8,85,0.00,,,0.00,WUHU216HW,2013-03-12 01:08:00,
2013-03-12 02:13:00,26.5,22.5,29.63,NNE,23,1.1,3.8,85,0.00,,,0.00,WUHU216HW,2013-03-12 01:13:00,
2013-03-12 02:18:00,26.5,22.5,29.63,NNE,23,1.8,3.8,85,0.00,,,0.00,WUHU216HW,2013-03-12 01:18:00,
2013-03-12 02:23:00,26.5,22.5,29.62,NNE,23,2.0,2.0,85,0.00,,,0.00,WUHU216HW,2013-03-12 01:23:00,
2013-03-12 02:28:00,26.5,22.5,29.62,NNE,23,0.7,2.0,85,0.00,,,0.00,WUHU216HW,2013-03-12 01:28:00,
2013-03-12 02:33:00,26.5,22.8,29.62,NNE,23,3.4,3.4,86,0.00,,,0.00,WUHU216HW,2013-03-12 01:33:00,
2013-03-12 02:38:00,26.6,23.0,29.62,NNE,23,3.1,3.4,86,0.00,,,0.00,WUHU216HW,2013-03-12 01:38:00,
2013-03-12 02:43:00,26.5,22.8,29.62,NE,45,2.5,4.5,86,0.00,,,0.00,WUHU216HW,2013-03-12 01:43:00,
2013-03-12 02:48:00,26.5,22.5,29.62,NE,45,1.1,4.5,85,0.00,,,0.00,WUHU216HW,2013-03-12 01:48:00,
2013-03-12 02:53:00,26.5,22.8,29.61,East,90,3.6,4.3,86,0.00,,,0.00,WUHU216HW,2013-03-12 01:53:00,
2013-03-12 02:58:00,26.6,22.7,29.62,NE,45,2.5,3.6,85,0.00,,,0.00,WUHU216HW,2013-03-12 01:58:00,
2013-03-12 03:03:00,26.6,22.7,29.61,NE,45,1.6,2.9,85,0.00,,,0.00,WUHU216HW,2013-03-12 02:03:00,
2013-03-12 03:08:00,26.6,22.7,29.61,NE,45,1.1,2.5,85,0.00,,,0.00,WUHU216HW,2013-03-12 02:08:00,
2013-03-12 03:13:00,26.6,22.7,29.61,ENE,68,2.9,2.9,85,0.00,,,0.00,WUHU216HW,2013-03-12 02:13:00,
2013-03-12 03:18:00,26.6,22.7,29.61,ENE,68,1.3,4.0,85,0.00,,,0.00,WUHU216HW,2013-03-12 02:18:00,
2013-03-12 03:23:00,26.6,22.7,29.61,East,90,2.0,4.0,85,0.00,,,0.00,WUHU216HW,2013-03-12 02:23:00,
2013-03-12 03:28:00,26.5,22.5,29.61,NNE,23,1.6,2.5,85,0.00,,,0.00,WUHU216HW,2013-03-12 02:28:00,
2013-03-12 03:33:00,26.5,22.5,29.60,ENE,68,1.3,2.5,85,0.00,,,0.00,WUHU216HW,2013-03-12 02:33:00,
2013-03-12 03:38:00,26.5,22.8,29.60,ENE,68,0.4,1.6,86,0.00,,,0.00,WUHU216HW,2013-03-12 02:38:00,
2013-03-12 03:43:00,26.6,22.7,29.60,ENE,68,1.1,1.6,85,0.00,,,0.00,WUHU216HW,2013-03-12 02:43:00,
2013-03-12 03:48:00,26.6,22.7,29.60,NE,45,1.1,1.1,85,0.00,,,0.00,WUHU216HW,2013-03-12 02:48:00,
2013-03-12 03:53:00,26.5,22.5,29.60,NNE,23,0.7,2.2,85,0.00,,,0.00,WUHU216HW,2013-03-12 02:53:00,
2013-03-12 03:59:00,26.5,22.5,29.60,NNE,23,1.3,2.2,85,0.00,,,0.00,WUHU216HW,2013-03-12 02:59:00,
2013-03-12 04:04:00,26.3,22.3,29.60,NE,45,0.7,2.9,85,0.00,,,0.00,WUHU216HW,2013-03-12 03:04:00,
2013-03-12 04:09:00,26.3,22.3,29.60,NNE,23,1.6,2.9,85,0.00,,,0.00,WUHU216HW,2013-03-12 03:09:00,
2013-03-12 04:14:00,26.5,22.8,29.60,North,0,2.5,2.5,86,0.00,,,0.00,WUHU216HW,2013-03-12 03:14:00,
2013-03-12 04:19:00,26.5,22.8,29.60,NE,45,1.8,2.5,86,0.00,,,0.00,WUHU216HW,2013-03-12 03:19:00,
2013-03-12 04:24:00,26.5,22.5,29.60,ENE,68,1.3,2.5,85,0.00,,,0.00,WUHU216HW,2013-03-12 03:24:00,
2013-03-12 04:29:00,26.5,22.5,29.60,North,0,1.6,1.8,85,0.00,,,0.00,WUHU216HW,2013-03-12 03:29:00,
2013-03-12 04:34:00,26.5,22.5,29.60,NE,45,2.2,2.2,85,0.00,,,0.00,WUHU216HW,2013-03-12 03:34:00,
2013-03-12 04:39:00,26.3,22.3,29.59,NE,45,2.7,2.7,85,0.00,,,0.00,WUHU216HW,2013-03-12 03:39:00,
2013-03-12 04:44:00,26.3,22.3,29.59,NE,45,3.4,3.4,85,0.00,,,0.00,WUHU216HW,2013-03-12 03:44:00,
2013-03-12 04:49:00,26.3,22.3,29.59,NE,45,1.3,3.4,85,0.00,,,0.00,WUHU216HW,2013-03-12 03:49:00,
2013-03-12 04:54:00,26.3,22.3,29.59,ENE,68,2.9,3.4,85,0.00,,,0.00,WUHU216HW,2013-03-12 03:54:00,
2013-03-12 04:59:00,26.3,22.3,29.59,ENE,68,2.9,2.9,85,0.00,,,0.00,WUHU216HW,2013-03-12 03:59:00,
2013-03-12 05:00:00,26.3,22.3,29.59,ENE,68,2.9,2.9,85,0.00,,,0.00,WUHU216HW,2013-03-12 04:00:00,
2013-03-12 05:05:00,26.3,22.3,29.59,NNE,23,1.1,2.9,85,0.00,,,0.00,WUHU216HW,2013-03-12 04:05:00,
2013-03-12 05:10:00,26.5,22.5,29.59,ENE,68,1.1,1.6,85,0.00,,,0.00,WUHU216HW,2013-03-12 04:10:00,
2013-03-12 05:15:00,26.5,22.5,29.59,ENE,68,2.0,2.0,85,0.00,,,0.00,WUHU216HW,2013-03-12 04:15:00,
2013-03-12 05:20:00,26.3,22.3,29.59,NE,45,0.9,2.0,85,0.00,,,0.00,WUHU216HW,2013-03-12 04:20:00,
2013-03-12 05:25:00,26.3,22.3,29.59,NE,45,2.5,2.7,85,0.00,,,0.00,WUHU216HW,2013-03-12 04:25:00,
2013-03-12 05:30:00,26.3,22.3,29.59,ESE,113,1.8,2.7,85,0.00,,,0.00,WUHU216HW,2013-03-12 04:30:00,
2013-03-12 05:35:00,26.3,22.3,29.59,North,0,2.0,2.5,85,0.00,,,0.00,WUHU216HW,2013-03-12 04:35:00,
2013-03-12 05:40:00,26.3,22.3,29.59,ENE,68,1.1,2.0,85,0.00,,,0.00,WUHU216HW,2013-03-12 04:40:00,
2013-03-12 05:45:00,26.3,22.6,29.59,NNE,23,0.4,2.0,86,0.00,,,0.00,WUHU216HW,2013-03-12 04:45:00,
2013-03-12 05:50:00,26.5,22.8,29.58,NNE,23,1.1,2.5,86,0.00,,,0.00,WUHU216HW,2013-03-12 04:50:00,
2013-03-12 05:55:00,26.5,22.8,29.58,NE,45,1.1,2.5,86,0.00,,,0.00,WUHU216HW,2013-03-12 04:55:00,
2013-03-12 06:00:00,26.5,22.8,29.58,ENE,68,1.8,2.5,86,0.00,,,0.00,WUHU216HW,2013-03-12 05:00:00,
2013-03-12 06:05:00,26.5,22.8,29.58,ESE,113,1.1,2.5,86,0.00,,,0.00,WUHU216HW,2013-03-12 05:05:00,
2013-03-12 06:10:00,26.6,23.0,29.58,NE,45,1.1,1.8,86,0.00,,,0.00,WUHU216HW,2013-03-12 05:10:00,
2013-03-12 06:15:00,26.6,23.0,29.58,NNE,23,0.9,1.8,86,0.00,,,0.00,WUHU216HW,2013-03-12 05:15:00,
2013-03-12 06:20:00,26.5,23.0,29.58,North,0,1.8,2.2,87,0.00,,,0.00,WUHU216HW,2013-03-12 05:20:00,
2013-03-12 06:25:00,26.6,23.2,29.58,ENE,68,0.4,2.2,87,0.00,,,0.00,WUHU216HW,2013-03-12 05:25:00,
2013-03-12 06:30:00,26.5,23.0,29.58,ESE,113,2.5,2.5,87,0.00,,,0.00,WUHU216HW,2013-03-12 05:30:00,
2013-03-12 06:35:00,26.6,23.2,29.58,SE,135,1.3,3.8,87,0.00,,,0.00,WUHU216HW,2013-03-12 05:35:00,
2013-03-12 06:40:00,26.5,22.8,29.58,NE,45,2.2,3.8,86,0.00,,,0.00,WUHU216HW,2013-03-12 05:40:00,
2013-03-12 06:45:00,26.5,22.8,29.58,North,0,2.0,2.2,86,0.00,,,0.00,WUHU216HW,2013-03-12 05:45:00,
2013-03-12 06:50:00,26.3,22.6,29.58,NE,45,1.6,2.2,86,0.00,,,0.00,WUHU216HW,2013-03-12 05:50:00,
2013-03-12 06:55:00,26.3,22.6,29.58,ENE,68,1.1,2.0,86,0.00,,,0.00,WUHU216HW,2013-03-12 05:55:00,
2013-03-12 07:00:00,26.3,23.0,29.58,NNE,23,0.7,3.1,87,0.00,,,0.00,WUHU216HW,2013-03-12 06:00:00,
2013-03-12 07:05:00,26.3,23.0,29.58,NNE,23,2.0,3.1,87,0.00,,,0.00,WUHU216HW,2013-03-12 06:05:00,
2013-03-12 07:10:00,26.3,23.0,29.58,ENE,68,1.6,2.5,87,0.00,,,0.00,WUHU216HW,2013-03-12 06:10:00,
2013-03-12 07:15:00,26.3,23.0,29.58,NE,45,1.8,2.0,87,0.00,,,0.00,WUHU216HW,2013-03-12 06:15:00,
2013-03-12 07:20:00,26.3,23.0,29.58,North,0,2.7,2.7,87,0.00,,,0.00,WUHU216HW,2013-03-12 06:20:00,
2013-03-12 07:25:00,26.3,23.0,29.58,ENE,68,1.3,2.7,87,0.00,,,0.00,WUHU216HW,2013-03-12 06:25:00,
2013-03-12 07:30:00,26.3,23.0,29.58,North,0,1.6,3.1,87,0.00,,,0.00,WUHU216HW,2013-03-12 06:30:00,
2013-03-12 07:35:00,26.3,23.0,29.58,NE,45,4.3,4.3,87,0.00,,,0.00,WUHU216HW,2013-03-12 06:35:00,
2013-03-12 07:40:00,26.3,23.0,29.58,NE,45,3.6,4.3,87,0.00,,,0.00,WUHU216HW,2013-03-12 06:40:00,
2013-03-12 07:46:00,26.3,23.0,29.58,East,90,0.4,4.3,87,0.00,,,0.00,WUHU216HW,2013-03-12 06:46:00,
2013-03-12 07:51:00,26.5,23.4,29.58,NE,45,1.1,3.6,88,0.00,,,0.00,WUHU216HW,2013-03-12 06:51:00,
2013-03-12 07:56:00,26.5,23.4,29.58,NE,45,2.5,2.5,88,0.00,,,0.00,WUHU216HW,2013-03-12 06:56:00,
2013-03-12 08:01:00,26.5,23.4,29.58,NE,45,2.5,2.5,88,0.00,,,0.00,WUHU216HW,2013-03-12 07:01:00,
2013-03-12 08:06:00,26.5,23.4,29.58,NE,45,2.5,2.5,88,0.00,,,0.00,WUHU216HW,2013-03-12 07:06:00,
2013-03-12 08:11:00,26.6,23.6,29.58,East,90,2.0,2.5,88,0.00,,,0.00,WUHU216HW,2013-03-12 07:11:00,
2013-03-12 08:16:00,26.6,23.6,29.58,East,90,2.0,2.5,88,0.00,,,0.00,WUHU216HW,2013-03-12 07:16:00,
2013-03-12 08:21:00,26.6,23.2,29.58,NNE,23,2.2,2.2,87,0.00,,,0.00,WUHU216HW,2013-03-12 07:21:00,
2013-03-12 08:25:00,26.6,23.2,29.58,NNE,23,2.2,2.2,87,0.00,,,0.00,WUHU216HW,2013-03-12 07:25:00,
2013-03-12 08:31:00,26.6,23.2,29.58,NNE,23,2.2,2.2,87,0.00,,,0.00,WUHU216HW,2013-03-12 07:31:00,
2013-03-12 08:36:00,26.5,23.4,29.58,ENE,68,1.8,4.3,88,0.00,,,0.00,WUHU216HW,2013-03-12 07:36:00,
2013-03-12 08:41:00,26.5,23.4,29.58,NNE,23,2.5,4.3,88,0.00,,,0.00,WUHU216HW,2013-03-12 07:41:00,
2013-03-12 08:46:00,26.6,23.6,29.58,ENE,68,1.6,2.5,88,0.00,,,0.00,WUHU216HW,2013-03-12 07:46:00,
2013-03-12 08:51:00,26.8,23.8,29.58,ENE,68,1.1,2.5,88,0.00,,,0.00,WUHU216HW,2013-03-12 07:51:00,
2013-03-12 08:55:00,26.8,23.8,29.58,NE,45,1.1,1.6,88,0.00,,,0.00,WUHU216HW,2013-03-12 07:55:00,
2013-03-12 09:00:00,27.0,24.0,29.58,ENE,68,0.9,1.1,88,0.00,,,0.00,WUHU216HW,2013-03-12 08:00:00,
2013-03-12 09:05:00,27.0,24.0,29.58,ESE,113,2.7,2.7,88,0.00,,,0.00,WUHU216HW,2013-03-12 08:05:00,
2013-03-12 09:10:00,27.0,24.0,29.58,ESE,113,2.7,2.7,88,0.00,,,0.00,WUHU216HW,2013-03-12 08:10:00,
2013-03-12 09:16:00,27.0,24.0,29.58,ESE,113,2.7,2.7,88,0.00,,,0.00,WUHU216HW,2013-03-12 08:16:00,
2013-03-12 09:21:00,27.0,24.0,29.57,NE,45,2.5,2.9,88,0.00,,,0.00,WUHU216HW,2013-03-12 08:21:00,
2013-03-12 09:26:00,27.0,24.0,29.57,NNE,23,3.4,3.4,88,0.00,,,0.00,WUHU216HW,2013-03-12 08:26:00,
2013-03-12 09:31:00,27.0,24.0,29.57,ENE,68,2.5,3.4,88,0.00,,,0.00,WUHU216HW,2013-03-12 08:31:00,
2013-03-12 09:36:00,27.0,24.0,29.58,NE,45,2.5,3.4,88,0.00,,,0.00,WUHU216HW,2013-03-12 08:36:00,
2013-03-12 09:41:00,27.0,24.0,29.57,NE,45,1.1,2.5,88,0.00,,,0.00,WUHU216HW,2013-03-12 08:41:00,
2013-03-12 09:46:00,27.0,24.0,29.57,North,0,1.8,2.5,88,0.00,,,0.00,WUHU216HW,2013-03-12 08:46:00,
2013-03-12 09:51:00,27.0,24.0,29.57,NNE,23,3.4,3.4,88,0.00,,,0.00,WUHU216HW,2013-03-12 08:51:00,
2013-03-12 09:55:00,27.2,24.1,29.57,East,90,6.0,6.0,88,0.00,,,0.00,WUHU216HW,2013-03-12 08:55:00,
2013-03-12 10:00:00,27.2,24.1,29.57,East,90,6.0,6.0,88,0.00,,,0.00,WUHU216HW,2013-03-12 09:00:00,
2013-03-12 10:05:00,27.2,24.1,29.57,NE,45,3.1,6.0,88,0.00,,,0.00,WUHU216HW,2013-03-12 09:05:00,
2013-03-12 10:10:00,27.4,24.3,29.57,ENE,68,2.7,6.0,88,0.00,,,0.00,WUHU216HW,2013-03-12 09:10:00,
2013-03-12 10:16:00,27.4,24.3,29.57,East,90,2.5,3.1,88,0.00,,,0.00,WUHU216HW,2013-03-12 09:16:00,
2013-03-12 10:20:00,27.5,24.5,29.57,NNE,23,3.6,3.6,88,0.00,,,0.00,WUHU216HW,2013-03-12 09:20:00,
2013-03-12 10:26:00,27.5,24.5,29.57,NNE,23,3.6,3.6,88,0.00,,,0.00,WUHU216HW,2013-03-12 09:26:00,
2013-03-12 10:30:00,27.5,24.5,29.56,NE,45,4.0,4.0,88,0.00,,,0.00,WUHU216HW,2013-03-12 09:30:00,
2013-03-12 10:35:00,27.7,24.7,29.56,NNE,23,2.0,4.0,88,0.00,,,0.00,WUHU216HW,2013-03-12 09:35:00,
2013-03-12 10:40:00,27.7,24.7,29.56,NNW,338,2.0,4.0,88,0.00,,,0.00,WUHU216HW,2013-03-12 09:40:00,
2013-03-12 10:45:00,27.9,24.9,29.56,NNE,23,2.5,2.5,88,0.00,,,0.00,WUHU216HW,2013-03-12 09:45:00,
2013-03-12 10:50:00,27.9,24.9,29.57,NNE,23,2.5,2.5,88,0.00,,,0.00,WUHU216HW,2013-03-12 09:50:00,
2013-03-12 10:55:00,28.1,24.7,29.57,NNE,23,1.6,2.5,87,0.00,,,0.00,WUHU216HW,2013-03-12 09:55:00,
2013-03-12 11:00:00,28.3,24.8,29.57,NNE,23,2.5,2.5,87,0.00,,,0.00,WUHU216HW,2013-03-12 10:00:00,
2013-03-12 11:05:00,28.4,25.0,29.57,NE,45,3.4,4.3,87,0.00,,,0.00,WUHU216HW,2013-03-12 10:05:00,
2013-03-12 11:10:00,28.4,25.0,29.57,North,0,3.1,4.3,87,0.00,,,0.00,WUHU216HW,2013-03-12 10:10:00,
2013-03-12 11:16:00,28.4,25.0,29.56,NE,45,5.6,5.6,87,0.00,,,0.00,WUHU216HW,2013-03-12 10:16:00,
2013-03-12 11:21:00,28.4,25.0,29.56,NNE,23,1.8,5.6,87,0.00,,,0.00,WUHU216HW,2013-03-12 10:21:00,
2013-03-12 11:26:00,28.4,25.0,29.56,NNE,23,2.7,5.6,87,0.00,,,0.00,WUHU216HW,2013-03-12 10:26:00,
2013-03-12 11:31:00,28.4,25.4,29.56,NNE,23,4.0,4.0,88,0.00,,,0.00,WUHU216HW,2013-03-12 10:31:00,
2013-03-12 11:36:00,28.4,25.0,29.56,NNE,23,1.1,4.0,87,0.00,,,0.00,WUHU216HW,2013-03-12 10:36:00,
2013-03-12 11:41:00,28.6,25.6,29.56,NNE,23,2.5,4.0,88,0.00,,,0.00,WUHU216HW,2013-03-12 10:41:00,
2013-03-12 11:46:00,28.6,25.2,29.56,NW,315,3.1,3.1,87,0.00,,,0.00,WUHU216HW,2013-03-12 10:46:00,
2013-03-12 11:52:00,28.6,25.2,29.56,NNE,23,2.9,3.1,87,0.00,,,0.00,WUHU216HW,2013-03-12 10:52:00,
2013-03-12 11:57:00,28.6,25.2,29.56,North,0,3.6,3.8,87,0.00,,,0.00,WUHU216HW,2013-03-12 10:57:00,
2013-03-12 12:02:00,28.4,25.0,29.56,NNE,23,3.6,3.8,87,0.00,,,0.00,WUHU216HW,2013-03-12 11:02:00,
2013-03-12 12:07:00,28.4,25.0,29.56,NNE,23,3.6,3.6,87,0.00,,,0.00,WUHU216HW,2013-03-12 11:07:00,
2013-03-12 12:12:00,28.6,25.2,29.56,NNE,23,3.1,3.6,87,0.00,,,0.00,WUHU216HW,2013-03-12 11:12:00,
2013-03-12 12:17:00,28.6,25.2,29.56,ENE,68,0.7,3.6,87,0.00,,,0.00,WUHU216HW,2013-03-12 11:17:00,
2013-03-12 12:22:00,28.8,25.1,29.56,North,0,5.6,5.6,86,0.00,,,0.00,WUHU216HW,2013-03-12 11:22:00,
2013-03-12 12:27:00,28.6,24.9,29.56,NE,45,3.4,5.6,86,0.00,,,0.00,WUHU216HW,2013-03-12 11:27:00,
2013-03-12 12:32:00,28.6,24.9,29.56,North,0,4.7,5.6,86,0.00,,,0.00,WUHU216HW,2013-03-12 11:32:00,
2013-03-12 12:37:00,28.6,24.9,29.56,NNE,23,2.9,4.7,86,0.00,,,0.00,WUHU216HW,2013-03-12 11:37:00,
2013-03-12 12:42:00,28.8,25.1,29.56,NNE,23,5.1,5.1,86,0.00,,,0.00,WUHU216HW,2013-03-12 11:42:00,
2013-03-12 12:47:00,28.6,25.2,29.56,NNE,23,1.8,5.1,87,0.00,,,0.00,WUHU216HW,2013-03-12 11:47:00,
2013-03-12 12:52:00,28.6,24.9,29.56,NNE,23,1.8,5.1,86,0.00,,,0.00,WUHU216HW,2013-03-12 11:52:00,
2013-03-12 12:57:00,28.8,25.1,29.56,North,0,2.9,2.9,86,0.00,,,0.00,WUHU216HW,2013-03-12 11:57:00,
2013-03-12 13:02:00,28.8,25.1,29.56,NE,45,4.7,4.7,86,0.00,,,0.00,WUHU216HW,2013-03-12 12:02:00,
2013-03-12 13:07:00,28.8,25.1,29.55,NNW,338,1.6,4.7,86,0.00,,,0.00,WUHU216HW,2013-03-12 12:07:00,
2013-03-12 13:12:00,29.0,25.6,29.55,NNE,23,3.4,4.7,87,0.00,,,0.00,WUHU216HW,2013-03-12 12:12:00,
2013-03-12 13:17:00,28.8,25.1,29.55,NE,45,4.5,4.5,86,0.00,,,0.00,WUHU216HW,2013-03-12 12:17:00,
2013-03-12 13:22:00,28.8,25.1,29.55,NNE,23,0.7,4.5,86,0.00,,,0.00,WUHU216HW,2013-03-12 12:22:00,
2013-03-12 13:27:00,28.8,25.1,29.55,ENE,68,2.2,4.5,86,0.00,,,0.00,WUHU216HW,2013-03-12 12:27:00,
2013-03-12 13:32:00,28.8,25.4,29.55,North,0,4.0,4.7,87,0.00,,,0.00,WUHU216HW,2013-03-12 12:32:00,
2013-03-12 13:37:00,28.8,25.1,29.55,NNE,23,5.4,5.4,86,0.00,,,0.00,WUHU216HW,2013-03-12 12:37:00,
2013-03-12 13:42:00,28.8,25.4,29.55,NNE,23,3.8,5.4,87,0.00,,,0.00,WUHU216HW,2013-03-12 12:42:00,
2013-03-12 13:47:00,28.8,25.1,29.55,NNE,23,1.8,5.4,86,0.00,,,0.00,WUHU216HW,2013-03-12 12:47:00,
2013-03-12 13:52:00,29.0,25.6,29.55,NE,45,4.3,4.3,87,0.00,,,0.00,WUHU216HW,2013-03-12 12:52:00,
2013-03-12 13:57:00,28.8,25.4,29.55,NE,45,2.5,4.3,87,0.00,,,0.00,WUHU216HW,2013-03-12 12:57:00,
2013-03-12 14:02:00,28.8,25.1,29.54,ENE,68,1.6,2.9,86,0.00,,,0.00,WUHU216HW,2013-03-12 13:02:00,
2013-03-12 14:07:00,29.0,25.3,29.54,East,90,4.3,4.3,86,0.00,,,0.00,WUHU216HW,2013-03-12 13:07:00,
2013-03-12 14:12:00,29.2,25.5,29.54,NE,45,1.3,4.3,86,0.00,,,0.00,WUHU216HW,2013-03-12 13:12:00,
2013-03-12 14:17:00,29.2,25.5,29.54,NE,45,1.1,4.3,86,0.00,,,0.00,WUHU216HW,2013-03-12 13:17:00,
2013-03-12 14:22:00,29.3,25.7,29.53,NNE,23,2.2,2.2,86,0.00,,,0.00,WUHU216HW,2013-03-12 13:22:00,
2013-03-12 14:28:00,29.2,25.5,29.53,NE,45,4.0,4.0,86,0.00,,,0.00,WUHU216HW,2013-03-12 13:28:00,
2013-03-12 14:33:00,29.2,25.7,29.53,ESE,113,2.7,4.0,87,0.00,,,0.00,WUHU216HW,2013-03-12 13:33:00,
2013-03-12 14:38:00,29.2,25.5,29.53,NNE,23,2.2,4.0,86,0.00,,,0.00,WUHU216HW,2013-03-12 13:38:00,
2013-03-12 14:43:00,29.2,25.5,29.53,NE,45,4.5,4.5,86,0.00,,,0.00,WUHU216HW,2013-03-12 13:43:00,
2013-03-12 14:48:00,29.2,25.5,29.53,NE,45,1.8,4.5,86,0.00,,,0.00,WUHU216HW,2013-03-12 13:48:00,
2013-03-12 14:53:00,29.3,25.7,29.53,NE,45,2.5,4.5,86,0.00,,,0.00,WUHU216HW,2013-03-12 13:53:00,
2013-03-12 14:58:00,29.3,25.7,29.53,NNW,338,2.0,2.5,86,0.00,,,0.00,WUHU216HW,2013-03-12 13:58:00,
2013-03-12 15:03:00,29.3,25.7,29.52,ENE,68,3.4,3.4,86,0.00,,,0.00,WUHU216HW,2013-03-12 14:03:00,
2013-03-12 15:08:00,29.3,25.7,29.52,ENE,68,1.8,3.4,86,0.00,,,0.00,WUHU216HW,2013-03-12 14:08:00,
2013-03-12 15:13:00,29.3,25.7,29.52,NE,45,4.0,4.0,86,0.00,,,0.00,WUHU216HW,2013-03-12 14:13:00,
2013-03-12 15:18:00,29.3,25.7,29.52,NE,45,4.0,4.0,86,0.00,,,0.00,WUHU216HW,2013-03-12 14:18:00,
2013-03-12 15:23:00,29.5,25.8,29.52,NNE,23,1.8,4.0,86,0.00,,,0.00,WUHU216HW,2013-03-12 14:23:00,
2013-03-12 15:28:00,29.5,25.8,29.52,NNE,23,1.8,4.0,86,0.00,,,0.00,WUHU216HW,2013-03-12 14:28:00,
2013-03-12 15:33:00,29.5,25.8,29.52,NNE,23,1.8,1.8,86,0.00,,,0.00,WUHU216HW,2013-03-12 14:33:00,
2013-03-12 15:38:00,29.5,25.8,29.52,NNE,23,1.8,1.8,86,0.00,,,0.00,WUHU216HW,2013-03-12 14:38:00,
2013-03-12 15:43:00,29.5,25.8,29.52,NNE,23,6.5,6.5,86,0.00,,,0.00,WUHU216HW,2013-03-12 14:43:00,
2013-03-12 15:48:00,29.3,25.7,29.52,NE,45,3.4,6.5,86,0.00,,,0.00,WUHU216HW,2013-03-12 14:48:00,
2013-03-12 15:53:00,29.3,25.7,29.52,NNE,23,1.3,6.5,86,0.00,,,0.00,WUHU216HW,2013-03-12 14:53:00,
2013-03-12 15:58:00,29.5,25.8,29.52,NE,45,1.1,3.4,86,0.00,,,0.00,WUHU216HW,2013-03-12 14:58:00,
2013-03-12 16:04:00,29.5,26.1,29.52,North,0,0.9,2.2,87,0.00,,,0.00,WUHU216HW,2013-03-12 15:04:00,
2013-03-12 16:09:00,29.5,25.8,29.52,NE,45,2.2,2.5,86,0.00,,,0.00,WUHU216HW,2013-03-12 15:09:00,
2013-03-12 16:14:00,29.5,25.8,29.51,ENE,68,0.2,2.5,86,0.00,,,0.00,WUHU216HW,2013-03-12 15:14:00,
2013-03-12 16:19:00,29.5,25.8,29.51,ENE,68,0.2,2.2,86,0.00,,,0.00,WUHU216HW,2013-03-12 15:19:00,
2013-03-12 16:24:00,29.5,25.8,29.52,ENE,68,0.2,0.2,86,0.00,,,0.00,WUHU216HW,2013-03-12 15:24:00,
2013-03-12 16:29:00,29.2,25.2,29.51,NNE,23,4.5,5.4,85,0.00,,,0.00,WUHU216HW,2013-03-12 15:29:00,
2013-03-12 16:34:00,29.2,25.2,29.51,North,0,3.6,5.4,85,0.00,,,0.00,WUHU216HW,2013-03-12 15:34:00,
2013-03-12 16:39:00,29.2,25.2,29.52,North,0,2.0,4.5,85,0.00,,,0.00,WUHU216HW,2013-03-12 15:39:00,
2013-03-12 16:44:00,29.2,25.2,29.52,NE,45,0.7,3.6,85,0.00,,,0.00,WUHU216HW,2013-03-12 15:44:00,
2013-03-12 16:49:00,29.2,25.2,29.52,North,0,1.1,2.5,85,0.00,,,0.00,WUHU216HW,2013-03-12 15:49:00,
2013-03-12 16:54:00,29.2,25.5,29.51,NE,45,1.1,1.6,86,0.00,,,0.00,WUHU216HW,2013-03-12 15:54:00,
2013-03-12 16:59:00,29.2,25.5,29.51,North,0,1.8,1.8,86,0.00,,,0.00,WUHU216HW,2013-03-12 15:59:00,
2013-03-12 17:04:00,29.2,25.2,29.51,North,0,2.9,4.9,85,0.00,,,0.00,WUHU216HW,2013-03-12 16:04:00,
2013-03-12 17:09:00,29.0,25.0,29.51,NNE,23,3.1,4.9,85,0.00,,,0.00,WUHU216HW,2013-03-12 16:09:00,
2013-03-12 17:14:00,28.8,24.8,29.50,NE,45,2.5,4.7,85,0.00,,,0.00,WUHU216HW,2013-03-12 16:14:00,
2013-03-12 17:19:00,28.8,24.8,29.51,North,0,3.4,4.7,85,0.00,,,0.00,WUHU216HW,2013-03-12 16:19:00,
2013-03-12 17:24:00,28.8,25.1,29.51,NNE,23,5.6,5.6,86,0.00,,,0.00,WUHU216HW,2013-03-12 16:24:00,
2013-03-12 17:29:00,28.6,24.7,29.51,NNE,23,1.6,5.6,85,0.00,,,0.00,WUHU216HW,2013-03-12 16:29:00,
2013-03-12 17:34:00,28.6,24.9,29.51,NNE,23,2.0,5.6,86,0.00,,,0.00,WUHU216HW,2013-03-12 16:34:00,
2013-03-12 17:39:00,28.6,24.9,29.50,NE,45,1.1,4.5,86,0.00,,,0.00,WUHU216HW,2013-03-12 16:39:00,
2013-03-12 17:44:00,28.6,24.9,29.51,NE,45,1.8,3.6,86,0.00,,,0.00,WUHU216HW,2013-03-12 16:44:00,
2013-03-12 17:49:00,28.6,24.9,29.50,NNE,23,5.1,5.1,86,0.00,,,0.00,WUHU216HW,2013-03-12 16:49:00,
2013-03-12 17:54:00,28.6,24.9,29.50,NNE,23,1.6,5.1,86,0.00,,,0.00,WUHU216HW,2013-03-12 16:54:00,
2013-03-12 17:59:00,28.4,24.5,29.50,NNE,23,1.6,5.1,85,0.00,,,0.00,WUHU216HW,2013-03-12 16:59:00,
2013-03-12 18:04:00,28.4,24.8,29.51,NNE,23,1.1,3.6,86,0.00,,,0.00,WUHU216HW,2013-03-12 17:04:00,
2013-03-12 18:09:00,28.4,24.8,29.50,NE,45,0.9,2.9,86,0.00,,,0.00,WUHU216HW,2013-03-12 17:09:00,
2013-03-12 18:14:00,28.4,24.8,29.50,NNE,23,2.5,3.4,86,0.00,,,0.00,WUHU216HW,2013-03-12 17:14:00,
2013-03-12 18:19:00,28.4,24.5,29.50,NNE,23,2.5,3.6,85,0.00,,,0.00,WUHU216HW,2013-03-12 17:19:00,
2013-03-12 18:24:00,28.4,24.8,29.50,East,90,3.4,3.6,86,0.00,,,0.00,WUHU216HW,2013-03-12 17:24:00,
2013-03-12 18:29:00,28.4,24.8,29.51,NNE,23,1.8,3.4,86,0.00,,,0.00,WUHU216HW,2013-03-12 17:29:00,
2013-03-12 18:34:00,28.4,24.8,29.50,ENE,68,1.3,2.5,86,0.00,,,0.00,WUHU216HW,2013-03-12 17:34:00,
2013-03-12 18:39:00,28.4,24.8,29.51,NNE,23,2.7,2.7,86,0.00,,,0.00,WUHU216HW,2013-03-12 17:39:00,
2013-03-12 18:45:00,28.4,24.8,29.50,NNE,23,1.3,2.7,86,0.00,,,0.00,WUHU216HW,2013-03-12 17:45:00,
2013-03-12 18:50:00,28.4,24.8,29.51,North,0,1.8,3.6,86,0.00,,,0.00,WUHU216HW,2013-03-12 17:50:00,
2013-03-12 18:55:00,28.4,24.8,29.50,NNE,23,1.1,3.6,86,0.00,,,0.00,WUHU216HW,2013-03-12 17:55:00,
2013-03-12 19:00:00,28.4,24.8,29.50,NNE,23,2.0,3.6,86,0.00,,,0.00,WUHU216HW,2013-03-12 18:00:00,
2013-03-12 19:05:00,28.4,24.8,29.50,NNE,23,3.6,3.6,86,0.00,,,0.00,WUHU216HW,2013-03-12 18:05:00,
2013-03-12 19:10:00,28.4,24.8,29.50,North,0,1.1,3.6,86,0.00,,,0.00,WUHU216HW,2013-03-12 18:10:00,
2013-03-12 19:15:00,28.3,24.6,29.50,NNE,23,1.1,4.5,86,0.00,,,0.00,WUHU216HW,2013-03-12 18:15:00,
2013-03-12 19:20:00,28.3,24.6,29.51,North,0,1.1,4.5,86,0.00,,,0.00,WUHU216HW,2013-03-12 18:20:00,
2013-03-12 19:25:00,28.1,24.1,29.51,NNE,23,2.0,3.1,85,0.00,,,0.00,WUHU216HW,2013-03-12 18:25:00,
2013-03-12 19:30:00,28.1,24.1,29.50,NNE,23,0.9,3.1,85,0.00,,,0.00,WUHU216HW,2013-03-12 18:30:00,
2013-03-12 19:35:00,28.1,24.1,29.50,NNE,23,1.6,2.9,85,0.00,,,0.00,WUHU216HW,2013-03-12 18:35:00,
2013-03-12 19:40:00,27.9,23.9,29.50,North,0,0.4,2.5,85,0.00,,,0.00,WUHU216HW,2013-03-12 18:40:00,
2013-03-12 19:45:00,27.7,24.0,29.51,North,0,1.1,2.9,86,0.00,,,0.00,WUHU216HW,2013-03-12 18:45:00,
2013-03-12 19:50:00,27.7,24.0,29.50,NNE,23,2.0,4.3,86,0.00,,,0.00,WUHU216HW,2013-03-12 18:50:00,
2013-03-12 19:55:00,27.5,23.9,29.50,ENE,68,2.9,4.5,86,0.00,,,0.00,WUHU216HW,2013-03-12 18:55:00,
2013-03-12 20:00:00,27.5,23.9,29.50,NNE,23,1.8,4.5,86,0.00,,,0.00,WUHU216HW,2013-03-12 19:00:00,
2013-03-12 20:05:00,27.5,24.1,29.49,North,0,1.8,4.5,87,0.00,,,0.00,WUHU216HW,2013-03-12 19:05:00,
2013-03-12 20:10:00,27.5,24.1,29.49,NNE,23,1.8,4.5,87,0.00,,,0.00,WUHU216HW,2013-03-12 19:10:00,
2013-03-12 20:15:00,27.4,23.9,29.49,ENE,68,0.4,4.3,87,0.00,,,0.00,WUHU216HW,2013-03-12 19:15:00,
2013-03-12 20:20:00,27.4,23.9,29.48,NE,45,2.0,2.7,87,0.00,,,0.00,WUHU216HW,2013-03-12 19:20:00,
2013-03-12 20:25:00,27.4,24.3,29.48,North,0,3.8,4.0,88,0.00,,,0.00,WUHU216HW,2013-03-12 19:25:00,
2013-03-12 20:30:00,27.4,23.9,29.48,NNE,23,1.1,4.0,87,0.00,,,0.00,WUHU216HW,2013-03-12 19:30:00,
2013-03-12 20:37:00,27.4,24.3,29.49,NE,45,5.1,5.1,88,0.00,,,0.00,WUHU216HW,2013-03-12 19:37:00,
2013-03-12 20:42:00,27.4,23.9,29.49,East,90,0.7,5.1,87,0.00,,,0.00,WUHU216HW,2013-03-12 19:42:00,
2013-03-12 20:47:00,27.4,23.9,29.49,NNE,23,2.5,5.1,87,0.00,,,0.00,WUHU216HW,2013-03-12 19:47:00,
2013-03-12 20:52:00,27.4,24.3,29.49,NE,45,1.1,2.5,88,0.00,,,0.00,WUHU216HW,2013-03-12 19:52:00,
2013-03-12 20:57:00,27.4,24.3,29.50,NNE,23,2.5,2.5,88,0.00,,,0.00,WUHU216HW,2013-03-12 19:57:00,
2013-03-12 21:02:00,27.4,24.3,29.49,NNE,23,1.8,2.5,88,0.00,,,0.00,WUHU216HW,2013-03-12 20:02:00,
2013-03-12 21:07:00,27.4,24.3,29.50,North,0,1.1,2.5,88,0.00,,,0.00,WUHU216HW,2013-03-12 20:07:00,
2013-03-12 21:12:00,27.4,24.3,29.49,NNE,23,1.8,2.5,88,0.00,,,0.00,WUHU216HW,2013-03-12 20:12:00,
2013-03-12 21:17:00,27.2,24.1,29.49,NNE,23,2.9,3.4,88,0.00,,,0.00,WUHU216HW,2013-03-12 20:17:00,
2013-03-12 21:22:00,27.0,24.0,29.49,North,0,1.3,3.4,88,0.00,,,0.00,WUHU216HW,2013-03-12 20:22:00,
2013-03-12 21:27:00,27.0,24.0,29.50,NNE,23,1.1,4.0,88,0.00,,,0.00,WUHU216HW,2013-03-12 20:27:00,
2013-03-12 21:32:00,27.0,24.0,29.49,North,0,1.8,4.0,88,0.00,,,0.00,WUHU216HW,2013-03-12 20:32:00,
2013-03-12 21:37:00,27.0,24.0,29.49,North,0,3.4,3.4,88,0.00,,,0.00,WUHU216HW,2013-03-12 20:37:00,
2013-03-12 21:42:00,27.0,24.2,29.49,North,0,0.4,3.4,89,0.00,,,0.00,WUHU216HW,2013-03-12 20:42:00,
2013-03-12 21:47:00,27.0,24.2,29.49,NNE,23,1.8,3.4,89,0.00,,,0.00,WUHU216HW,2013-03-12 20:47:00,
2013-03-12 21:52:00,27.0,24.2,29.49,NNE,23,3.4,3.4,89,0.00,,,0.00,WUHU216HW,2013-03-12 20:52:00,
2013-03-12 21:57:00,27.0,24.2,29.49,NNE,23,1.6,3.4,89,0.00,,,0.00,WUHU216HW,2013-03-12 20:57:00,
2013-03-12 22:03:00,27.0,24.2,29.49,North,0,3.1,3.4,89,0.00,,,0.00,WUHU216HW,2013-03-12 21:03:00,
2013-03-12 22:08:00,27.0,24.2,29.49,NNE,23,3.1,3.1,89,0.00,,,0.00,WUHU216HW,2013-03-12 21:08:00,
2013-03-12 22:13:00,26.8,24.3,29.49,North,0,4.3,4.3,90,0.00,,,0.00,WUHU216HW,2013-03-12 21:13:00,
2013-03-12 22:18:00,26.6,23.9,29.49,NNE,23,3.8,4.3,89,0.00,,,0.00,WUHU216HW,2013-03-12 21:18:00,
2013-03-12 22:23:00,26.6,24.1,29.49,NNE,23,1.8,4.3,90,0.00,,,0.00,WUHU216HW,2013-03-12 21:23:00,
2013-03-12 22:28:00,26.6,24.1,29.50,NNE,23,1.6,3.8,90,0.00,,,0.00,WUHU216HW,2013-03-12 21:28:00,
2013-03-12 22:33:00,26.6,24.1,29.50,NNE,23,1.1,3.4,90,0.00,,,0.00,WUHU216HW,2013-03-12 21:33:00,
2013-03-12 22:38:00,26.6,24.1,29.50,North,0,2.9,4.5,90,0.00,,,0.00,WUHU216HW,2013-03-12 21:38:00,
2013-03-12 22:43:00,26.5,24.2,29.50,ENE,68,4.0,4.5,91,0.00,,,0.00,WUHU216HW,2013-03-12 21:43:00,
2013-03-12 22:48:00,26.6,24.4,29.50,North,0,0.2,4.5,91,0.00,,,0.00,WUHU216HW,2013-03-12 21:48:00,
2013-03-12 22:53:00,26.6,24.4,29.50,NNE,23,3.4,4.5,91,0.00,,,0.00,WUHU216HW,2013-03-12 21:53:00,
2013-03-12 22:58:00,26.5,24.2,29.50,NNE,23,0.9,3.4,91,0.00,,,0.00,WUHU216HW,2013-03-12 21:58:00,
2013-03-12 23:03:00,26.5,24.2,29.50,NNE,23,1.8,3.4,91,0.00,,,0.00,WUHU216HW,2013-03-12 22:03:00,
2013-03-12 23:08:00,26.5,24.2,29.50,North,0,0.7,2.2,91,0.00,,,0.00,WUHU216HW,2013-03-12 22:08:00,
2013-03-12 23:13:00,26.5,24.2,29.50,NNE,23,2.0,2.2,91,0.00,,,0.00,WUHU216HW,2013-03-12 22:13:00,
2013-03-12 23:18:00,26.5,24.2,29.50,NNE,23,1.8,3.1,91,0.00,,,0.00,WUHU216HW,2013-03-12 22:18:00,
2013-03-12 23:23:00,26.5,24.2,29.50,NNE,23,0.4,3.1,91,0.00,,,0.00,WUHU216HW,2013-03-12 22:23:00,
2013-03-12 23:28:00,26.5,24.2,29.49,ENE,68,1.8,1.8,91,0.00,,,0.00,WUHU216HW,2013-03-12 22:28:00,
2013-03-12 23:33:00,26.3,24.0,29.49,North,0,3.4,4.3,91,0.00,,,0.00,WUHU216HW,2013-03-12 22:33:00,
2013-03-12 23:38:00,26.1,23.9,29.49,North,0,2.2,4.3,91,0.00,,,0.00,WUHU216HW,2013-03-12 22:38:00,
2013-03-12 23:43:00,26.1,23.9,29.48,NE,45,2.9,3.6,91,0.00,,,0.00,WUHU216HW,2013-03-12 22:43:00,
2013-03-12 23:48:00,26.1,23.9,29.48,North,0,2.7,2.9,91,0.00,,,0.00,WUHU216HW,2013-03-12 22:48:00,
2013-03-12 23:53:00,26.1,23.9,29.49,NNE,23,0.2,2.9,91,0.00,,,0.00,WUHU216HW,2013-03-12 22:53:00,
2013-03-12 23:58:00,26.1,23.9,29.49,NNE,23,1.1,2.5,91,0.00,,,0.00,WUHU216HW,2013-03-12 22:58:00,